DW6725 Weather Reports


Display with metric or nautical units.
time (UTC)temp
F
wind
direction
speed
MPH
gust
MPH
rain 1hr
in
rain 24hr
in
rain mn
in
humidity
%
barometer
mb
20260903224007 78 21 1.0 8.0 0.00 0.06 0.01 69 1012.7
20260903223005 79 357 2.0 6.0 0.00 0.06 0.01 67 1012.6
20260903222003 79 18 0.0 2.0 0.00 0.06 0.01 64 1012.4
20260903221214 79 344 0.0 2.0 0.00 0.06 0.01 65 1012.5
20260903220003 80 298 0.0 3.0 0.00 0.06 0.01 65 1012.5
20260903215004 80 306 0.0 3.0 0.00 0.06 0.01 64 1012.6
20260903214003 80 280 1.0 3.0 0.00 0.06 0.01 63 1012.6
20260903213004 80 304 1.0 4.0 0.00 0.06 0.01 61 1012.7
20260903212003 81 328 0.0 2.0 0.00 0.06 0.01 59 1012.5
20260903211004 81 329 0.0 5.0 0.00 0.06 0.01 60 1012.6
20260903210004 82 294 2.0 5.0 0.00 0.06 0.01 61 1012.6
20260903205003 81 287 1.0 5.0 0.00 0.06 0.01 62 1012.8
20260903204003 81 328 1.0 8.0 0.00 0.06 0.01 63 1013.0
20260903203215 81 291 2.0 8.0 0.00 0.06 0.01 60 1013.0
20260903202003 81 260 1.0 6.0 0.00 0.06 0.01 59 1013.1
20260903201003 82 312 2.0 4.0 0.00 0.06 0.01 58 1013.0
20260903200004 82 277 2.0 9.0 0.00 0.06 0.01 57 1013.1
20260903195004 82 279 2.0 7.0 0.00 0.06 0.01 58 1013.0
20260903194005 81 258 2.0 4.0 0.00 0.06 0.01 61 1013.1
20260903193005 81 290 2.0 6.0 0.00 0.06 0.01 60 1013.3
20260903192004 82 342 2.0 9.0 0.00 0.06 0.01 59 1013.3
20260903191004 82 303 1.0 7.0 0.00 0.06 0.01 62 1013.4
20260903190005 81 269 2.0 8.0 0.00 0.06 0.01 61 1013.5
20260903185006 81 282 2.0 7.0 0.00 0.06 0.01 60 1013.4
20260903184005 81 253 1.0 7.0 0.00 0.06 0.01 63 1013.7
20260903183004 80 301 2.0 9.0 0.00 0.06 0.01 63 1013.7
20260903182004 80 326 1.0 6.0 0.00 0.06 0.01 65 1013.3
20260903181214 80 300 4.0 8.0 0.00 0.06 0.01 64 1013.6
20260903180004 80 339 2.0 6.0 0.00 0.06 0.01 63 1013.5
20260903175004 79 277 2.0 7.0 0.00 0.06 0.01 65 1013.7
20260903174214 79 282 2.0 7.0 0.00 0.06 0.01 64 1013.7
20260903173005 78 279 2.0 8.0 0.00 0.06 0.01 67 1013.8
20260903172004 78 214 3.0 7.0 0.00 0.06 0.01 68 1013.8
20260903171006 78 277 3.0 9.0 0.00 0.06 0.01 68 1013.7
20260903170005 78 314 2.0 8.0 0.00 0.06 0.01 69 1013.8
20260903165004 78 309 2.0 8.0 0.00 0.06 0.01 70 1013.9
20260903164003 77 269 4.0 11.0 0.00 0.06 0.01 72 1014.0
20260903163006 77 301 3.0 8.0 0.00 0.06 0.01 76 1014.2
20260903162213 77 256 3.0 9.0 0.00 0.06 0.01 77 1014.1
20260903161004 76 230 2.0 5.0 0.00 0.06 0.01 78 1014.2
20260903160007 76 301 4.0 10.0 0.00 0.06 0.01 81 1014.2
20260903155004 75 226 3.0 9.0 0.00 0.06 0.01 83 1014.2
20260903154213 75 225 4.0 7.0 0.00 0.06 0.01 83 1014.3
20260903153003 74 280 2.0 8.0 0.00 0.06 0.01 86 1014.4
20260903152004 74 279 2.0 10.0 0.00 0.06 0.01 86 1014.4
20260903151215 74 291 3.0 9.0 0.00 0.07 0.01 88 1014.5
20260903150213 74 265 4.0 12.0 0.00 0.08 0.01 88 1014.7
20260903145003 73 254 3.0 9.0 0.00 0.44 0.01 89 1014.6
20260903144003 73 221 3.0 10.0 0.00 0.97 0.01 90 1014.6
20260903143005 72 238 2.0 10.0 0.00 1.03 0.01 90 1014.5
20260903142003 72 215 2.0 6.0 0.00 1.05 0.01 91 1014.5
20260903141003 72 224 3.0 6.0 0.00 1.07 0.01 91 1014.4
20260903140004 71 238 3.0 9.0 0.00 1.24 0.01 92 1014.4
20260903135215 71 244 3.0 11.0 0.00 1.41 0.01 92 1014.2
20260903134004 71 244 2.0 9.0 0.00 1.61 0.01 91 1014.3
20260903133003 71 222 2.0 9.0 0.00 1.62 0.01 91 1014.3
20260903132212 71 224 2.0 9.0 0.00 1.63 0.01 90 1014.3
20260903131004 71 232 1.0 8.0 0.00 1.63 0.01 90 1014.5
20260903130005 71 206 2.0 11.0 0.00 1.63 0.01 89 1014.3
20260903125005 71 206 2.0 8.0 0.00 1.63 0.01 89 1014.4
20260903124006 71 212 2.0 10.0 0.00 1.63 0.01 89 1014.4
20260903123005 71 249 2.0 8.0 0.00 1.63 0.01 89 1014.4
20260903122006 71 199 2.0 10.0 0.00 1.63 0.01 89 1014.2
20260903121004 71 225 2.0 10.0 0.00 1.63 0.01 90 1014.1
20260903120005 71 204 1.0 8.0 0.00 1.63 0.01 90 1014.0
20260903115004 71 188 1.0 11.0 0.00 1.63 0.01 90 1013.9
20260903114004 70 162 1.0 11.0 0.00 1.63 0.01 91 1013.9
20260903113004 70 163 1.0 7.0 0.00 1.63 0.01 91 1013.8
20260903112005 70 155 2.0 9.0 0.00 1.63 0.01 91 1013.6
20260903111004 70 167 2.0 7.0 0.00 1.63 0.01 92 1013.6
20260903110004 70 210 2.0 10.0 0.00 1.63 0.01 92 1013.4
20260903105004 70 151 2.0 5.0 0.00 1.63 0.01 92 1013.3
20260903104004 70 168 1.0 4.0 0.00 1.63 0.01 91 1013.3
20260903103005 70 157 1.0 4.0 0.00 1.63 0.01 91 1013.3
20260903102004 70 201 2.0 7.0 0.00 1.63 0.01 91 1013.1
20260903101003 70 185 2.0 7.0 0.00 1.63 0.01 91 1013.3
20260903100004 70 153 3.0 11.0 0.00 1.63 0.01 92 1013.2
20260903095005 70 179 3.0 11.0 0.00 1.63 0.01 92 1013.3
20260903094003 70 198 1.0 7.0 0.00 1.63 0.01 94 1013.2
20260903093006 70 207 1.0 6.0 0.00 1.63 0.01 94 1013.3
20260903092003 69 178 1.0 4.0 0.00 1.63 0.01 95 1013.3
20260903091004 69 131 1.0 4.0 0.00 1.63 0.01 95 1013.3
20260903090004 69 177 1.0 4.0 0.00 1.63 0.01 95 1013.3
20260903085003 69 186 1.0 5.0 0.00 1.63 0.01 95 1013.0
20260903084005 69 165 1.0 5.0 0.00 1.63 0.01 95 1013.1
20260903083003 69 156 1.0 8.0 0.00 1.63 0.01 95 1013.2
20260903082005 69 172 2.0 7.0 0.00 1.63 0.01 95 1013.2
20260903081003 69 176 1.0 7.0 0.00 1.63 0.01 95 1013.1
20260903080214 69 168 1.0 7.0 0.00 1.63 0.01 95 1013.2
20260903075004 69 171 1.0 6.0 0.00 1.63 0.01 95 1013.2
20260903074004 69 150 1.0 6.0 0.00 1.63 0.01 95 1013.3
20260903073003 69 163 2.0 7.0 0.00 1.63 0.01 95 1013.4
20260903072003 69 218 1.0 9.0 0.00 1.63 0.01 95 1013.7
20260903071003 69 206 1.0 8.0 0.00 1.63 0.01 96 1013.5
20260903070214 69 165 1.0 8.0 0.00 1.63 0.01 96 1013.7
20260903065003 69 218 1.0 6.0 0.00 1.63 0.01 97 1013.5
20260903064214 69 250 1.0 7.0 0.00 1.63 0.01 97 1013.3
20260903063003 69 324 0.0 5.0 0.01 1.63 0.01 98 1013.3
20260903062214 68 193 0.0 5.0 0.01 1.63 0.01 98 1013.3
20260903061003 68 188 1.0 8.0 0.01 1.63 0.01 98 1013.1
20260903060214 68 217 1.0 7.0 0.01 1.63 0.01 98 1013.4
20260903055003 68 257 0.0 3.0 0.01 1.63 0.01 99 1013.1
20260903054003 68 0 0.0 2.0 0.01 1.63 0.01 99 1013.3
20260903053005 68 0 0.0 0.0 0.00 1.62 0.00 99 1013.3
20260903052004 68 0 0.0 0.0 0.00 1.62 0.00 99 1013.3
20260903051004 68 0 0.0 0.0 0.00 1.62 0.00 98 1013.2
20260903050005 68 0 0.0 1.0 0.00 1.62 0.00 97 1013.3
20260903045004 68 0 0.0 1.0 0.00 1.62 0.00 97 1013.1
20260903044005 68 274 0.0 2.0 0.00 1.62 0.00 97 1013.0
20260903043215 68 0 0.0 1.0 0.00 1.62 0.00 97 1013.1
20260903042217 69 139 1.0 6.0 0.00 1.62 0.00 97 1013.0
20260903041003 68 188 1.0 10.0 0.00 1.62 0.00 97 1013.2
20260903040009 68 232 1.0 10.0 0.00 1.62 0.00 97 1013.3
20260903035004 68 216 2.0 9.0 0.00 1.62 1.62 97 1013.5
20260903034004 68 231 5.0 18.0 0.00 1.62 1.62 98 1013.3
20260903033005 68 220 4.0 14.0 0.00 1.62 1.62 98 1013.2
20260903032004 68 203 3.0 15.0 0.00 1.62 1.62 98 1013.2
20260903031005 68 196 2.0 7.0 0.00 1.62 1.62 98 1012.6
20260903030004 68 186 2.0 7.0 0.01 1.62 1.62 97 1012.2
20260903025005 68 142 2.0 6.0 0.01 1.62 1.62 97 1012.5
20260903024214 68 152 1.0 6.0 0.04 1.62 1.62 97 1012.6
20260903023214 68 140 2.0 8.0 0.04 1.62 1.62 96 1012.7
20260903022214 69 164 2.0 12.0 0.05 1.62 1.62 96 1013.2
20260903021003 69 179 3.0 8.0 0.05 1.62 1.62 96 1013.2
20260903020004 70 157 3.0 7.0 0.04 1.61 1.61 95 1012.9
20260903015004 71 167 1.0 8.0 0.04 1.61 1.61 95 1013.6
20260903014005 72 220 3.0 12.0 0.01 1.58 1.58 94 1014.2
20260903013004 72 253 2.0 10.0 0.01 1.58 1.58 94 1014.1
20260903012003 72 144 2.0 5.0 0.00 1.57 1.57 93 1013.7
20260903011003 73 34 0.0 4.0 0.00 1.57 1.57 92 1014.0
20260903010003 73 37 0.0 2.0 0.00 1.57 1.57 91 1014.7
20260903005003 73 30 1.0 6.0 0.00 1.57 1.57 91 1015.1
20260903004003 73 127 1.0 4.0 0.00 1.57 1.57 90 1014.4
20260903003003 74 135 1.0 5.0 0.00 1.57 1.57 90 1013.4
20260903002003 74 130 1.0 7.0 0.00 1.57 1.57 90 1013.5
20260903001003 74 171 2.0 7.0 0.00 1.57 1.57 90 1013.3
20260903000005 74 149 2.0 9.0 0.00 1.57 1.57 90 1013.3
20260902235003 74 154 3.0 9.0 0.00 1.57 1.57 90 1013.2
20260902234003 74 165 3.0 10.0 0.00 1.57 1.57 90 1012.9
20260902233213 74 171 3.0 10.0 0.00 1.57 1.57 89 1013.1
20260902232003 74 157 2.0 7.0 0.00 1.57 1.57 89 1013.3
20260902231213 75 152 3.0 10.0 0.00 1.57 1.57 88 1013.4
20260902230003 75 206 2.0 7.0 0.00 1.57 1.57 88 1013.3
20260902225003 75 164 2.0 5.0 0.00 1.57 1.57 86 1013.0